Location: Nitra
(0.0000°N, 18.0833°E)
Time: 02:38:20
(UTC+01:00)

Meteor 1-20 Rocket - Pass Details

Date: 30 November 2023
Orbit: 818 x 891 km, 81.2° (Epoch: 03 March)

Event Time Altitude Azimuth Distance (km) Brightness Sun altitude
Rises 18:28:02 0° 2° (N) 3,403 7.1 -12.0°
Reaches altitude 10° 18:30:27 10° 6° (N) 2,481 6.4 -12.6°
Maximum altitude 18:36:01 61° 85° (E) 980 4.2 -13.8°
Drops below altitude 10° 18:41:42 10° 165° (SSE) 2,536 6.8 -15.2°
Sets 18:44:11 0° 168° (SSE) 3,484 7.5 -15.7°
